Location: Spondin
(51.8528°N, 111.6118°W)
Time: 18:12:16
(UTC+00:00)

Vanguard 2 Rocket - Pass Details

Date: 26 May 2022
Orbit: 553 x 3323 km, 32.9° (Epoch: 02 July)

Event Time Altitude Azimuth Distance (km) Brightness Sun altitude
Rises 22:42:45 0° 248° (WSW) 7,186 12.3 41.0°
Reaches altitude 10° 22:48:33 10° 240° (WSW) 5,938 12.2 40.2°
Maximum altitude 23:02:51 33° 186° (S) 3,401 10.4 38.1°
Drops below altitude 10° 23:12:25 10° 128° (SE) 3,963 9.9 36.6°
Sets 23:15:25 0° 118° (ESE) 4,603 10.1 36.2°
